Time,TemperatureF,DewpointF,PressureIn,WindDirection,WindDirectionDegrees,WindSpeedMPH,WindSpeedGustMPH,Humidity,HourlyPrecipIn,Conditions,Clouds,dailyrainin,SoftwareType,DateUTC
2014-09-20 00:02:00,60.4,53.6,29.87,ENE,68,0.0,0.0,78,0.00,,,0.00,meteobridge,2014-09-20 07:02:00,
2014-09-20 00:04:00,60.4,53.6,29.87,ENE,68,0.0,0.0,78,0.00,,,0.00,meteobridge,2014-09-20 07:04:00,
2014-09-20 00:05:00,60.4,53.6,29.87,ENE,68,0.0,0.0,78,0.00,,,0.00,meteobridge,2014-09-20 07:05:00,
2014-09-20 00:07:00,60.4,53.6,29.87,ENE,68,0.0,0.0,78,0.00,,,0.00,meteobridge,2014-09-20 07:07:00,
2014-09-20 00:08:00,60.4,53.6,29.87,ENE,68,0.0,0.0,78,0.00,,,0.00,meteobridge,2014-09-20 07:08:00,
2014-09-20 00:09:00,60.4,53.6,29.87,ENE,68,0.0,0.0,78,0.00,,,0.00,meteobridge,2014-09-20 07:09:00,
2014-09-20 00:10:00,60.4,53.6,29.87,ENE,68,0.0,0.0,78,0.00,,,0.00,meteobridge,2014-09-20 07:10:00,
2014-09-20 00:12:00,60.4,53.6,29.87,ENE,68,0.0,1.0,78,0.00,,,0.00,meteobridge,2014-09-20 07:12:00,
2014-09-20 00:13:00,60.4,53.6,29.87,ENE,68,0.0,1.0,78,0.00,,,0.00,meteobridge,2014-09-20 07:13:00,
2014-09-20 00:14:00,60.4,53.6,29.87,ENE,68,0.0,0.0,78,0.00,,,0.00,meteobridge,2014-09-20 07:14:00,
2014-09-20 00:15:00,60.4,53.6,29.87,ENE,68,0.0,0.0,78,0.00,,,0.00,meteobridge,2014-09-20 07:15:00,
2014-09-20 00:18:00,60.4,53.6,29.87,ENE,68,0.0,0.0,78,0.00,,,0.00,meteobridge,2014-09-20 07:18:00,
2014-09-20 00:19:00,60.4,53.6,29.87,ENE,68,0.0,0.0,78,0.00,,,0.00,meteobridge,2014-09-20 07:19:00,
2014-09-20 00:22:00,60.4,53.6,29.87,ENE,68,0.0,0.0,78,0.00,,,0.00,meteobridge,2014-09-20 07:22:00,
2014-09-20 00:23:00,60.4,53.6,29.87,ENE,68,0.0,0.0,78,0.00,,,0.00,meteobridge,2014-09-20 07:23:00,
2014-09-20 00:24:00,60.4,53.6,29.87,ENE,68,0.0,0.0,78,0.00,,,0.00,meteobridge,2014-09-20 07:24:00,
2014-09-20 00:27:00,60.3,53.4,29.87,ENE,68,0.0,0.0,78,0.00,,,0.00,meteobridge,2014-09-20 07:27:00,
2014-09-20 00:28:00,60.3,53.4,29.87,ENE,68,0.0,0.0,78,0.00,,,0.00,meteobridge,2014-09-20 07:28:00,
2014-09-20 00:30:00,60.3,53.4,29.87,ENE,68,0.0,0.0,78,0.00,,,0.00,meteobridge,2014-09-20 07:30:00,
2014-09-20 00:32:00,60.3,53.4,29.86,ENE,69,0.0,0.0,78,0.00,,,0.00,meteobridge,2014-09-20 07:32:00,
2014-09-20 00:33:00,60.3,53.4,29.86,ENE,68,0.0,0.0,78,0.00,,,0.00,meteobridge,2014-09-20 07:33:00,
2014-09-20 00:34:00,60.3,53.4,29.86,ENE,68,0.0,0.0,78,0.00,,,0.00,meteobridge,2014-09-20 07:34:00,
2014-09-20 00:35:00,60.1,53.2,29.87,ENE,68,0.0,1.0,78,0.00,,,0.00,meteobridge,2014-09-20 07:35:00,
2014-09-20 00:39:00,60.1,53.6,29.87,ENE,68,0.0,0.0,79,0.00,,,0.00,meteobridge,2014-09-20 07:39:00,
2014-09-20 00:41:00,59.9,53.4,29.87,ENE,68,0.0,0.0,79,0.00,,,0.00,meteobridge,2014-09-20 07:41:00,
2014-09-20 00:44:00,59.9,53.4,29.86,ENE,68,0.0,0.0,79,0.00,,,0.00,meteobridge,2014-09-20 07:44:00,
2014-09-20 00:45:00,59.9,53.4,29.87,ENE,68,0.0,0.0,79,0.00,,,0.00,meteobridge,2014-09-20 07:45:00,
2014-09-20 00:46:00,59.9,53.4,29.87,ENE,68,0.0,0.0,79,0.00,,,0.00,meteobridge,2014-09-20 07:46:00,
2014-09-20 00:49:00,59.7,53.2,29.87,ENE,68,0.0,0.0,79,0.00,,,0.00,meteobridge,2014-09-20 07:49:00,
2014-09-20 00:50:00,59.7,53.2,29.87,ENE,68,0.0,0.0,79,0.00,,,0.00,meteobridge,2014-09-20 07:50:00,
2014-09-20 00:51:00,59.7,53.2,29.86,ENE,68,0.0,0.0,79,0.00,,,0.00,meteobridge,2014-09-20 07:51:00,
2014-09-20 00:54:00,59.7,53.2,29.86,ENE,68,0.0,0.0,79,0.00,,,0.00,meteobridge,2014-09-20 07:54:00,
2014-09-20 00:55:00,59.7,53.2,29.86,ENE,68,0.0,0.0,79,0.00,,,0.00,meteobridge,2014-09-20 07:55:00,
2014-09-20 00:56:00,59.7,53.2,29.86,ENE,68,0.0,1.0,79,0.00,,,0.00,meteobridge,2014-09-20 07:56:00,
2014-09-20 01:00:00,59.5,53.1,29.86,ENE,68,0.0,0.0,79,0.00,,,0.00,meteobridge,2014-09-20 08:00:00,
2014-09-20 01:01:00,59.5,53.1,29.86,ENE,68,0.0,0.0,79,0.00,,,0.00,meteobridge,2014-09-20 08:01:00,
2014-09-20 01:02:00,59.5,53.1,29.86,ENE,68,0.0,0.0,79,0.00,,,0.00,meteobridge,2014-09-20 08:02:00,
2014-09-20 01:06:00,59.5,53.1,29.86,ENE,68,0.0,0.0,79,0.00,,,0.00,meteobridge,2014-09-20 08:06:00,
2014-09-20 01:07:00,59.5,53.1,29.87,ENE,68,0.0,0.0,79,0.00,,,0.00,meteobridge,2014-09-20 08:07:00,
2014-09-20 01:11:00,59.5,53.1,29.86,ENE,68,0.0,0.0,79,0.00,,,0.00,meteobridge,2014-09-20 08:11:00,
2014-09-20 01:12:00,59.5,53.1,29.86,ENE,68,0.0,0.0,79,0.00,,,0.00,meteobridge,2014-09-20 08:12:00,
2014-09-20 01:17:00,59.5,53.1,29.86,ENE,68,0.0,0.0,79,0.00,,,0.00,meteobridge,2014-09-20 08:17:00,
2014-09-20 01:22:00,59.5,53.1,29.86,ENE,68,0.0,0.0,79,0.00,,,0.00,meteobridge,2014-09-20 08:22:00,
2014-09-20 01:23:00,59.5,53.1,29.86,ENE,68,0.0,0.0,79,0.00,,,0.00,meteobridge,2014-09-20 08:23:00,
2014-09-20 01:28:00,59.5,53.1,29.87,ENE,68,0.0,0.0,79,0.00,,,0.00,meteobridge,2014-09-20 08:28:00,
2014-09-20 01:29:00,59.5,53.1,29.87,ENE,69,0.0,0.0,79,0.00,,,0.00,meteobridge,2014-09-20 08:29:00,
2014-09-20 01:33:00,59.5,53.4,29.87,ENE,68,0.0,0.0,80,0.00,,,0.00,meteobridge,2014-09-20 08:33:00,
2014-09-20 01:34:00,59.5,53.4,29.87,ENE,68,0.0,1.0,80,0.00,,,0.00,meteobridge,2014-09-20 08:34:00,
2014-09-20 01:38:00,59.4,53.2,29.87,ENE,68,0.0,1.0,80,0.00,,,0.00,meteobridge,2014-09-20 08:38:00,
2014-09-20 01:39:00,59.5,53.4,29.87,ENE,68,0.0,1.0,80,0.00,,,0.00,meteobridge,2014-09-20 08:39:00,
2014-09-20 01:40:00,59.4,53.2,29.87,ENE,68,0.0,0.0,80,0.00,,,0.00,meteobridge,2014-09-20 08:40:00,
2014-09-20 01:43:00,59.5,53.4,29.87,ENE,68,0.0,0.0,80,0.00,,,0.00,meteobridge,2014-09-20 08:43:00,
2014-09-20 01:44:00,59.5,53.4,29.87,ENE,69,0.0,0.0,80,0.00,,,0.00,meteobridge,2014-09-20 08:44:00,
2014-09-20 01:45:00,59.5,53.4,29.87,ENE,68,0.0,0.0,80,0.00,,,0.00,meteobridge,2014-09-20 08:45:00,
2014-09-20 01:48:00,59.5,53.4,29.87,ENE,69,0.0,1.0,80,0.00,,,0.00,meteobridge,2014-09-20 08:48:00,
2014-09-20 01:50:00,59.5,53.4,29.87,ENE,68,0.0,0.0,80,0.00,,,0.00,meteobridge,2014-09-20 08:50:00,
2014-09-20 01:51:00,59.5,53.4,29.87,ENE,68,0.0,0.0,80,0.00,,,0.00,meteobridge,2014-09-20 08:51:00,
2014-09-20 01:53:00,59.5,53.4,29.87,ENE,68,0.0,1.0,80,0.00,,,0.00,meteobridge,2014-09-20 08:53:00,
2014-09-20 01:55:00,59.5,53.4,29.87,ENE,68,0.0,0.0,80,0.00,,,0.00,meteobridge,2014-09-20 08:55:00,
2014-09-20 01:56:00,59.5,53.4,29.87,ENE,68,0.0,0.0,80,0.00,,,0.00,meteobridge,2014-09-20 08:56:00,
2014-09-20 01:58:00,59.5,53.4,29.87,ENE,68,0.0,0.0,80,0.00,,,0.00,meteobridge,2014-09-20 08:58:00,
2014-09-20 02:00:00,59.5,53.4,29.87,ENE,69,0.0,0.0,80,0.00,,,0.00,meteobridge,2014-09-20 09:00:00,
2014-09-20 02:01:00,59.5,53.4,29.87,ENE,68,0.0,0.0,80,0.00,,,0.00,meteobridge,2014-09-20 09:01:00,
2014-09-20 02:04:00,59.7,53.6,29.87,ENE,68,0.0,0.0,80,0.00,,,0.00,meteobridge,2014-09-20 09:04:00,
2014-09-20 02:05:00,59.7,53.6,29.87,ENE,68,0.0,1.0,80,0.00,,,0.00,meteobridge,2014-09-20 09:05:00,
2014-09-20 02:06:00,59.7,53.6,29.87,ENE,68,0.0,1.0,80,0.00,,,0.00,meteobridge,2014-09-20 09:06:00,
2014-09-20 02:09:00,59.7,53.6,29.87,ENE,68,0.0,0.0,80,0.00,,,0.00,meteobridge,2014-09-20 09:09:00,
2014-09-20 02:11:00,59.7,53.6,29.87,ENE,68,0.0,0.0,80,0.00,,,0.00,meteobridge,2014-09-20 09:11:00,
2014-09-20 02:14:00,59.7,53.6,29.87,ENE,68,0.0,0.0,80,0.00,,,0.00,meteobridge,2014-09-20 09:14:00,
2014-09-20 02:16:00,59.7,53.6,29.87,ENE,68,0.0,0.0,80,0.00,,,0.00,meteobridge,2014-09-20 09:16:00,
2014-09-20 02:19:00,59.7,53.6,29.87,ENE,68,0.0,0.0,80,0.00,,,0.00,meteobridge,2014-09-20 09:19:00,
2014-09-20 02:21:00,59.7,53.6,29.87,ENE,68,0.0,1.0,80,0.00,,,0.00,meteobridge,2014-09-20 09:21:00,
2014-09-20 02:23:00,59.7,53.6,29.87,ENE,68,0.0,1.0,80,0.00,,,0.00,meteobridge,2014-09-20 09:23:00,
2014-09-20 02:24:00,59.9,53.8,29.87,ENE,68,0.0,0.0,80,0.00,,,0.00,meteobridge,2014-09-20 09:24:00,
2014-09-20 02:27:00,59.9,53.8,29.87,ENE,68,0.0,1.0,80,0.00,,,0.00,meteobridge,2014-09-20 09:27:00,
2014-09-20 02:28:00,59.9,53.8,29.87,ENE,68,0.0,1.0,80,0.00,,,0.00,meteobridge,2014-09-20 09:28:00,
2014-09-20 02:29:00,60.1,53.6,29.87,ENE,68,0.0,1.0,79,0.00,,,0.00,meteobridge,2014-09-20 09:29:00,
2014-09-20 02:32:00,60.1,53.6,29.87,ENE,68,0.0,0.0,79,0.00,,,0.00,meteobridge,2014-09-20 09:32:00,
2014-09-20 02:34:00,60.1,53.6,29.87,ENE,69,0.0,0.0,79,0.00,,,0.00,meteobridge,2014-09-20 09:34:00,
2014-09-20 02:35:00,60.1,53.6,29.87,ENE,68,0.0,1.0,79,0.00,,,0.00,meteobridge,2014-09-20 09:35:00,
2014-09-20 02:36:00,60.3,53.8,29.87,ENE,68,0.0,1.0,79,0.00,,,0.00,meteobridge,2014-09-20 09:36:00,
2014-09-20 02:37:00,60.3,53.8,29.87,ENE,68,0.0,1.0,79,0.00,,,0.00,meteobridge,2014-09-20 09:37:00,
2014-09-20 02:39:00,60.1,53.6,29.87,ENE,68,0.0,1.0,79,0.00,,,0.00,meteobridge,2014-09-20 09:39:00,
2014-09-20 02:40:00,60.3,53.8,29.87,ENE,68,0.0,0.0,79,0.00,,,0.00,meteobridge,2014-09-20 09:40:00,
2014-09-20 02:41:00,60.3,53.8,29.87,ENE,68,0.0,0.0,79,0.00,,,0.00,meteobridge,2014-09-20 09:41:00,
2014-09-20 02:42:00,60.3,53.8,29.87,ENE,68,0.0,1.0,79,0.00,,,0.00,meteobridge,2014-09-20 09:42:00,
2014-09-20 02:44:00,60.3,53.4,29.87,ENE,68,0.0,0.0,78,0.00,,,0.00,meteobridge,2014-09-20 09:44:00,
2014-09-20 02:45:00,60.1,53.2,29.87,ENE,68,0.0,0.0,78,0.00,,,0.00,meteobridge,2014-09-20 09:45:00,
2014-09-20 02:46:00,60.1,53.6,29.87,ENE,68,0.0,0.0,79,0.00,,,0.00,meteobridge,2014-09-20 09:46:00,
2014-09-20 02:47:00,60.1,53.2,29.87,ENE,68,0.0,0.0,78,0.00,,,0.00,meteobridge,2014-09-20 09:47:00,
2014-09-20 02:50:00,60.1,53.2,29.87,ENE,68,0.0,1.0,78,0.00,,,0.00,meteobridge,2014-09-20 09:50:00,
2014-09-20 02:51:00,60.1,53.2,29.87,ENE,68,0.0,1.0,78,0.00,,,0.00,meteobridge,2014-09-20 09:51:00,
2014-09-20 02:53:00,60.1,53.2,29.87,ENE,68,0.0,0.0,78,0.00,,,0.00,meteobridge,2014-09-20 09:53:00,
2014-09-20 02:55:00,60.1,53.2,29.87,ENE,68,0.0,0.0,78,0.00,,,0.00,meteobridge,2014-09-20 09:55:00,
2014-09-20 02:56:00,60.1,53.2,29.87,ENE,68,0.0,0.0,78,0.00,,,0.00,meteobridge,2014-09-20 09:56:00,
2014-09-20 02:58:00,59.9,53.1,29.87,ENE,68,0.0,0.0,78,0.00,,,0.00,meteobridge,2014-09-20 09:58:00,
2014-09-20 03:01:00,59.9,53.1,29.87,ENE,68,0.0,0.0,78,0.00,,,0.00,meteobridge,2014-09-20 10:01:00,
2014-09-20 03:02:00,59.9,53.1,29.87,ENE,68,0.0,1.0,78,0.00,,,0.00,meteobridge,2014-09-20 10:02:00,
2014-09-20 03:03:00,59.9,53.1,29.87,ENE,68,0.0,1.0,78,0.00,,,0.00,meteobridge,2014-09-20 10:03:00,
2014-09-20 03:06:00,59.9,53.1,29.87,ENE,68,0.0,0.0,78,0.00,,,0.00,meteobridge,2014-09-20 10:06:00,
2014-09-20 03:08:00,59.7,52.9,29.87,ENE,68,0.0,0.0,78,0.00,,,0.00,meteobridge,2014-09-20 10:08:00,
2014-09-20 03:09:00,59.7,52.9,29.87,ENE,68,0.0,0.0,78,0.00,,,0.00,meteobridge,2014-09-20 10:09:00,
2014-09-20 03:11:00,59.7,52.9,29.87,ENE,68,0.0,1.0,78,0.00,,,0.00,meteobridge,2014-09-20 10:11:00,
2014-09-20 03:13:00,59.7,52.9,29.87,ENE,68,0.0,1.0,78,0.00,,,0.00,meteobridge,2014-09-20 10:13:00,
2014-09-20 03:14:00,59.7,52.9,29.86,ENE,68,0.0,0.0,78,0.00,,,0.00,meteobridge,2014-09-20 10:14:00,
2014-09-20 03:17:00,59.5,52.7,29.87,ENE,68,0.0,0.0,78,0.00,,,0.00,meteobridge,2014-09-20 10:17:00,
2014-09-20 03:19:00,59.5,52.7,29.87,ENE,68,0.0,1.0,78,0.00,,,0.00,meteobridge,2014-09-20 10:19:00,
2014-09-20 03:23:00,59.7,52.5,29.86,ENE,68,0.0,1.0,77,0.00,,,0.00,meteobridge,2014-09-20 10:23:00,
2014-09-20 03:24:00,59.7,52.5,29.86,ENE,68,0.0,1.0,77,0.00,,,0.00,meteobridge,2014-09-20 10:24:00,
2014-09-20 03:25:00,59.7,52.5,29.86,ENE,68,0.0,1.0,77,0.00,,,0.00,meteobridge,2014-09-20 10:25:00,
2014-09-20 03:28:00,59.7,52.5,29.86,ENE,68,0.0,0.0,77,0.00,,,0.00,meteobridge,2014-09-20 10:28:00,
2014-09-20 03:30:00,59.7,52.5,29.86,ENE,68,0.0,1.0,77,0.00,,,0.00,meteobridge,2014-09-20 10:30:00,
2014-09-20 03:33:00,59.9,52.7,29.86,ENE,68,0.0,0.0,77,0.00,,,0.00,meteobridge,2014-09-20 10:33:00,
2014-09-20 03:35:00,59.9,52.7,29.86,ENE,68,0.0,0.0,77,0.00,,,0.00,meteobridge,2014-09-20 10:35:00,
2014-09-20 03:36:00,60.1,52.9,29.86,ENE,69,0.0,0.0,77,0.00,,,0.00,meteobridge,2014-09-20 10:36:00,
2014-09-20 03:39:00,60.1,52.9,29.86,ENE,68,0.0,1.0,77,0.00,,,0.00,meteobridge,2014-09-20 10:39:00,
2014-09-20 03:40:00,60.1,52.9,29.86,ENE,68,0.0,1.0,77,0.00,,,0.00,meteobridge,2014-09-20 10:40:00,
2014-09-20 03:42:00,60.1,52.9,29.86,ENE,68,0.0,1.0,77,0.00,,,0.00,meteobridge,2014-09-20 10:42:00,
2014-09-20 03:44:00,60.1,52.9,29.86,ENE,68,0.0,0.0,77,0.00,,,0.00,meteobridge,2014-09-20 10:44:00,
2014-09-20 03:45:00,60.1,52.9,29.86,ENE,68,0.0,1.0,77,0.00,,,0.00,meteobridge,2014-09-20 10:45:00,
2014-09-20 03:49:00,60.1,52.9,29.86,ENE,68,0.0,1.0,77,0.00,,,0.00,meteobridge,2014-09-20 10:49:00,
2014-09-20 03:50:00,60.1,52.9,29.86,ENE,68,0.0,1.0,77,0.00,,,0.00,meteobridge,2014-09-20 10:50:00,
2014-09-20 03:54:00,60.3,52.7,29.86,ENE,69,0.0,1.0,76,0.00,,,0.00,meteobridge,2014-09-20 10:54:00,
2014-09-20 03:55:00,60.3,52.7,29.86,ENE,69,0.0,1.0,76,0.00,,,0.00,meteobridge,2014-09-20 10:55:00,
2014-09-20 03:59:00,60.3,52.7,29.86,ENE,69,0.0,0.0,76,0.00,,,0.00,meteobridge,2014-09-20 10:59:00,
2014-09-20 04:00:00,60.3,52.7,29.86,ENE,69,0.0,0.0,76,0.00,,,0.00,meteobridge,2014-09-20 11:00:00,
2014-09-20 04:01:00,60.3,52.7,29.86,ENE,69,0.0,0.0,76,0.00,,,0.00,meteobridge,2014-09-20 11:01:00,
2014-09-20 04:04:00,60.3,52.7,29.86,ENE,69,0.0,1.0,76,0.00,,,0.00,meteobridge,2014-09-20 11:04:00,
2014-09-20 04:06:00,60.4,52.9,29.86,ENE,69,0.0,1.0,76,0.00,,,0.00,meteobridge,2014-09-20 11:06:00,
2014-09-20 04:10:00,60.4,52.9,29.86,ENE,69,0.9,1.0,76,0.00,,,0.00,meteobridge,2014-09-20 11:10:00,
2014-09-20 04:11:00,60.4,52.9,29.86,ENE,69,0.0,1.0,76,0.00,,,0.00,meteobridge,2014-09-20 11:11:00,
2014-09-20 04:12:00,60.4,52.9,29.86,ENE,69,0.0,1.0,76,0.00,,,0.00,meteobridge,2014-09-20 11:12:00,
2014-09-20 04:15:00,60.4,52.9,29.86,ENE,69,0.0,0.0,76,0.00,,,0.00,meteobridge,2014-09-20 11:15:00,
2014-09-20 04:16:00,60.4,52.9,29.86,ENE,69,0.0,0.0,76,0.00,,,0.00,meteobridge,2014-09-20 11:16:00,
2014-09-20 04:17:00,60.4,52.9,29.86,ENE,69,0.0,0.0,76,0.00,,,0.00,meteobridge,2014-09-20 11:17:00,
2014-09-20 04:20:00,60.4,52.9,29.86,ENE,69,0.0,0.0,76,0.00,,,0.00,meteobridge,2014-09-20 11:20:00,
2014-09-20 04:21:00,60.4,52.9,29.86,ENE,69,0.0,0.0,76,0.00,,,0.00,meteobridge,2014-09-20 11:21:00,
2014-09-20 04:22:00,60.4,52.9,29.86,ENE,69,0.0,1.0,76,0.00,,,0.00,meteobridge,2014-09-20 11:22:00,
2014-09-20 04:25:00,60.4,52.9,29.86,ENE,69,0.0,1.0,76,0.00,,,0.00,meteobridge,2014-09-20 11:25:00,
2014-09-20 04:26:00,60.4,52.9,29.86,ENE,69,0.0,0.0,76,0.00,,,0.00,meteobridge,2014-09-20 11:26:00,
2014-09-20 04:27:00,60.4,52.9,29.86,ENE,69,0.0,1.0,76,0.00,,,0.00,meteobridge,2014-09-20 11:27:00,
2014-09-20 04:30:00,60.3,52.7,29.86,ENE,69,0.0,0.0,76,0.00,,,0.00,meteobridge,2014-09-20 11:30:00,
2014-09-20 04:32:00,60.3,52.7,29.86,ENE,69,0.0,0.0,76,0.00,,,0.00,meteobridge,2014-09-20 11:32:00,
2014-09-20 04:33:00,60.3,52.7,29.86,ENE,68,0.0,0.0,76,0.00,,,0.00,meteobridge,2014-09-20 11:33:00,
2014-09-20 04:35:00,60.3,52.7,29.86,ENE,69,0.0,0.0,76,0.00,,,0.00,meteobridge,2014-09-20 11:35:00,
2014-09-20 04:37:00,60.3,52.7,29.86,ENE,69,0.0,0.0,76,0.00,,,0.00,meteobridge,2014-09-20 11:37:00,
2014-09-20 04:39:00,60.3,53.1,29.86,ENE,69,0.0,0.0,77,0.00,,,0.00,meteobridge,2014-09-20 11:39:00,
2014-09-20 04:41:00,60.1,52.9,29.86,ENE,69,0.0,0.0,77,0.00,,,0.00,meteobridge,2014-09-20 11:41:00,
2014-09-20 04:42:00,60.1,52.9,29.86,ENE,69,0.0,0.0,77,0.00,,,0.00,meteobridge,2014-09-20 11:42:00,
2014-09-20 04:44:00,59.9,52.7,29.86,ENE,69,0.0,0.0,77,0.00,,,0.00,meteobridge,2014-09-20 11:44:00,
2014-09-20 04:46:00,59.9,52.7,29.86,ENE,69,0.0,0.0,77,0.00,,,0.00,meteobridge,2014-09-20 11:46:00,
2014-09-20 04:47:00,59.9,52.7,29.86,ENE,69,0.0,0.0,77,0.00,,,0.00,meteobridge,2014-09-20 11:47:00,
2014-09-20 04:48:00,59.9,52.7,29.86,ENE,68,0.0,1.0,77,0.00,,,0.00,meteobridge,2014-09-20 11:48:00,
2014-09-20 04:50:00,60.1,52.9,29.86,ENE,68,0.0,0.0,77,0.00,,,0.00,meteobridge,2014-09-20 11:50:00,
2014-09-20 04:51:00,60.1,52.9,29.86,ENE,69,0.0,0.0,77,0.00,,,0.00,meteobridge,2014-09-20 11:51:00,
2014-09-20 04:52:00,60.1,52.9,29.86,ENE,69,0.0,0.0,77,0.00,,,0.00,meteobridge,2014-09-20 11:52:00,
2014-09-20 04:54:00,60.1,52.9,29.86,ENE,69,0.0,1.0,77,0.00,,,0.00,meteobridge,2014-09-20 11:54:00,
2014-09-20 04:55:00,59.9,52.7,29.86,ENE,69,0.0,1.0,77,0.00,,,0.00,meteobridge,2014-09-20 11:55:00,
2014-09-20 04:56:00,59.9,52.7,29.86,ENE,69,0.0,1.0,77,0.00,,,0.00,meteobridge,2014-09-20 11:56:00,
2014-09-20 04:57:00,59.9,52.7,29.86,ENE,69,0.0,1.0,77,0.00,,,0.00,meteobridge,2014-09-20 11:57:00,
2014-09-20 04:59:00,59.7,52.5,29.86,ENE,69,0.0,1.0,77,0.00,,,0.00,meteobridge,2014-09-20 11:59:00,
2014-09-20 05:01:00,59.7,52.5,29.86,ENE,69,0.0,0.0,77,0.00,,,0.00,meteobridge,2014-09-20 12:01:00,
2014-09-20 05:02:00,59.7,52.5,29.86,ENE,68,0.0,0.0,77,0.00,,,0.00,meteobridge,2014-09-20 12:02:00,
2014-09-20 05:04:00,59.7,52.5,29.86,ENE,68,0.0,0.0,77,0.00,,,0.00,meteobridge,2014-09-20 12:04:00,
2014-09-20 05:06:00,59.7,52.5,29.86,ENE,69,0.0,0.0,77,0.00,,,0.00,meteobridge,2014-09-20 12:06:00,
2014-09-20 05:07:00,59.7,52.5,29.86,ENE,69,0.0,0.0,77,0.00,,,0.00,meteobridge,2014-09-20 12:07:00,
2014-09-20 05:08:00,59.7,52.5,29.86,ENE,68,0.0,0.0,77,0.00,,,0.00,meteobridge,2014-09-20 12:08:00,
2014-09-20 05:09:00,59.5,52.3,29.86,ENE,69,0.0,0.0,77,0.00,,,0.00,meteobridge,2014-09-20 12:09:00,
2014-09-20 05:11:00,59.5,52.3,29.86,ENE,69,0.0,0.0,77,0.00,,,0.00,meteobridge,2014-09-20 12:11:00,
2014-09-20 05:12:00,59.5,52.3,29.86,ENE,68,0.0,0.0,77,0.00,,,0.00,meteobridge,2014-09-20 12:12:00,
2014-09-20 05:13:00,59.5,52.3,29.86,ENE,69,0.0,1.0,77,0.00,,,0.00,meteobridge,2014-09-20 12:13:00,
2014-09-20 05:15:00,59.5,52.3,29.86,ENE,69,0.0,1.0,77,0.00,,,0.00,meteobridge,2014-09-20 12:15:00,
2014-09-20 05:16:00,59.5,52.3,29.86,ENE,69,0.0,1.0,77,0.00,,,0.00,meteobridge,2014-09-20 12:16:00,
2014-09-20 05:18:00,59.5,52.7,29.85,ENE,69,0.0,1.0,78,0.00,,,0.00,meteobridge,2014-09-20 12:18:00,
2014-09-20 05:19:00,59.5,52.7,29.86,ENE,69,0.0,1.0,78,0.00,,,0.00,meteobridge,2014-09-20 12:19:00,
2014-09-20 05:20:00,59.4,52.5,29.85,ENE,69,0.0,0.0,78,0.00,,,0.00,meteobridge,2014-09-20 12:20:00,
2014-09-20 05:21:00,59.4,52.2,29.85,ENE,69,0.0,0.0,77,0.00,,,0.00,meteobridge,2014-09-20 12:21:00,
2014-09-20 05:23:00,59.4,52.5,29.85,ENE,69,0.0,1.0,78,0.00,,,0.00,meteobridge,2014-09-20 12:23:00,
2014-09-20 05:24:00,59.4,52.5,29.85,ENE,68,0.0,1.0,78,0.00,,,0.00,meteobridge,2014-09-20 12:24:00,
2014-09-20 05:26:00,59.4,52.5,29.85,ENE,69,0.0,1.0,78,0.00,,,0.00,meteobridge,2014-09-20 12:26:00,
2014-09-20 05:29:00,59.2,52.3,29.85,ENE,69,0.0,0.0,78,0.00,,,0.00,meteobridge,2014-09-20 12:29:00,
2014-09-20 05:31:00,59.2,52.3,29.86,ENE,68,0.0,0.0,78,0.00,,,0.00,meteobridge,2014-09-20 12:31:00,
2014-09-20 05:32:00,59.2,52.3,29.85,ENE,69,0.0,0.0,78,0.00,,,0.00,meteobridge,2014-09-20 12:32:00,
2014-09-20 05:34:00,59.2,52.3,29.85,ENE,68,0.0,1.0,78,0.00,,,0.00,meteobridge,2014-09-20 12:34:00,
2014-09-20 05:36:00,59.0,52.2,29.86,ENE,69,0.0,0.0,78,0.00,,,0.00,meteobridge,2014-09-20 12:36:00,
2014-09-20 05:37:00,59.0,52.2,29.86,ENE,69,0.0,0.0,78,0.00,,,0.00,meteobridge,2014-09-20 12:37:00,
2014-09-20 05:39:00,59.0,52.2,29.86,ENE,68,0.0,0.0,78,0.00,,,0.00,meteobridge,2014-09-20 12:39:00,
2014-09-20 05:40:00,59.0,52.5,29.86,ENE,68,0.0,1.0,79,0.00,,,0.00,meteobridge,2014-09-20 12:40:00,
2014-09-20 05:41:00,59.0,52.2,29.86,ENE,69,0.0,1.0,78,0.00,,,0.00,meteobridge,2014-09-20 12:41:00,
2014-09-20 05:42:00,58.8,52.0,29.85,ENE,69,0.0,1.0,78,0.00,,,0.00,meteobridge,2014-09-20 12:42:00,
2014-09-20 05:44:00,58.8,52.0,29.85,ENE,69,0.0,0.0,78,0.00,,,0.00,meteobridge,2014-09-20 12:44:00,
2014-09-20 05:46:00,58.8,52.0,29.85,ENE,68,0.0,0.0,78,0.00,,,0.00,meteobridge,2014-09-20 12:46:00,
2014-09-20 05:47:00,58.8,52.0,29.85,ENE,69,0.0,0.0,78,0.00,,,0.00,meteobridge,2014-09-20 12:47:00,
2014-09-20 05:51:00,58.8,52.0,29.85,ENE,69,0.0,1.0,78,0.00,,,0.00,meteobridge,2014-09-20 12:51:00,
2014-09-20 05:52:00,58.8,52.0,29.85,ENE,69,0.0,0.0,78,0.00,,,0.00,meteobridge,2014-09-20 12:52:00,
2014-09-20 05:53:00,58.6,52.2,29.86,ENE,68,0.0,0.0,79,0.00,,,0.00,meteobridge,2014-09-20 12:53:00,
2014-09-20 05:56:00,58.6,52.2,29.86,ENE,68,0.0,0.0,79,0.00,,,0.00,meteobridge,2014-09-20 12:56:00,
2014-09-20 05:57:00,58.6,51.8,29.86,ENE,69,0.0,0.0,78,0.00,,,0.00,meteobridge,2014-09-20 12:57:00,
2014-09-20 05:58:00,58.6,51.8,29.86,ENE,68,0.0,0.0,78,0.00,,,0.00,meteobridge,2014-09-20 12:58:00,
2014-09-20 06:01:00,58.6,52.2,29.86,ENE,68,0.0,0.0,79,0.00,,,0.00,meteobridge,2014-09-20 13:01:00,
2014-09-20 06:02:00,58.6,52.2,29.86,ENE,69,0.0,0.0,79,0.00,,,0.00,meteobridge,2014-09-20 13:02:00,
2014-09-20 06:03:00,58.6,52.2,29.86,ENE,69,0.0,0.0,79,0.00,,,0.00,meteobridge,2014-09-20 13:03:00,
2014-09-20 06:06:00,58.6,51.8,29.86,ENE,69,0.0,0.0,78,0.00,,,0.00,meteobridge,2014-09-20 13:06:00,
2014-09-20 06:07:00,58.6,51.8,29.86,ENE,69,0.0,0.0,78,0.00,,,0.00,meteobridge,2014-09-20 13:07:00,
2014-09-20 06:10:00,58.6,51.8,29.86,ENE,68,0.0,0.0,78,0.00,,,0.00,meteobridge,2014-09-20 13:10:00,
2014-09-20 06:11:00,58.5,52.0,29.86,ENE,69,0.0,1.0,79,0.00,,,0.00,meteobridge,2014-09-20 13:11:00,
2014-09-20 06:12:00,58.5,52.0,29.86,ENE,69,0.0,1.0,79,0.00,,,0.00,meteobridge,2014-09-20 13:12:00,
2014-09-20 06:13:00,58.5,51.6,29.86,ENE,68,0.0,1.0,78,0.00,,,0.00,meteobridge,2014-09-20 13:13:00,
2014-09-20 06:15:00,58.5,52.0,29.86,ENE,68,0.0,0.0,79,0.00,,,0.00,meteobridge,2014-09-20 13:15:00,
2014-09-20 06:17:00,58.5,51.6,29.86,ENE,68,0.0,1.0,78,0.00,,,0.00,meteobridge,2014-09-20 13:17:00,
2014-09-20 06:18:00,58.5,51.6,29.86,ENE,68,0.0,1.0,78,0.00,,,0.00,meteobridge,2014-09-20 13:18:00,
2014-09-20 06:20:00,58.5,51.6,29.86,ENE,69,0.0,0.0,78,0.00,,,0.00,meteobridge,2014-09-20 13:20:00,
2014-09-20 06:22:00,58.5,52.0,29.86,ENE,68,0.0,1.0,79,0.00,,,0.00,meteobridge,2014-09-20 13:22:00,
2014-09-20 06:23:00,58.5,52.0,29.86,ENE,69,0.0,1.0,79,0.00,,,0.00,meteobridge,2014-09-20 13:23:00,
2014-09-20 06:24:00,58.5,52.0,29.86,ENE,69,0.0,0.0,79,0.00,,,0.00,meteobridge,2014-09-20 13:24:00,
2014-09-20 06:26:00,58.5,52.0,29.86,ENE,69,0.0,1.0,79,0.00,,,0.00,meteobridge,2014-09-20 13:26:00,
2014-09-20 06:28:00,58.5,52.0,29.86,ENE,69,0.0,1.0,79,0.00,,,0.00,meteobridge,2014-09-20 13:28:00,
2014-09-20 06:29:00,58.5,52.0,29.86,ENE,69,0.0,1.0,79,0.00,,,0.00,meteobridge,2014-09-20 13:29:00,
2014-09-20 06:31:00,58.5,52.0,29.86,ENE,68,0.0,1.0,79,0.00,,,0.00,meteobridge,2014-09-20 13:31:00,
2014-09-20 06:33:00,58.5,52.0,29.86,ENE,69,0.0,1.0,79,0.00,,,0.00,meteobridge,2014-09-20 13:33:00,
2014-09-20 06:34:00,58.5,52.0,29.86,ENE,68,0.0,1.0,79,0.00,,,0.00,meteobridge,2014-09-20 13:34:00,
2014-09-20 06:37:00,58.5,51.6,29.86,ENE,69,0.0,0.0,78,0.00,,,0.00,meteobridge,2014-09-20 13:37:00,
2014-09-20 06:38:00,58.5,52.0,29.86,ENE,69,0.9,1.0,79,0.00,,,0.00,meteobridge,2014-09-20 13:38:00,
2014-09-20 06:39:00,58.5,52.0,29.86,ENE,69,0.0,1.0,79,0.00,,,0.00,meteobridge,2014-09-20 13:39:00,
2014-09-20 06:40:00,58.5,52.0,29.86,ENE,69,0.0,1.0,79,0.00,,,0.00,meteobridge,2014-09-20 13:40:00,
2014-09-20 06:42:00,58.5,52.0,29.86,ENE,69,0.0,1.0,79,0.00,,,0.00,meteobridge,2014-09-20 13:42:00,
2014-09-20 06:43:00,58.3,51.8,29.86,ENE,69,0.0,1.0,79,0.00,,,0.00,meteobridge,2014-09-20 13:43:00,
2014-09-20 06:44:00,58.5,52.0,29.86,ENE,69,0.0,1.0,79,0.00,,,0.00,meteobridge,2014-09-20 13:44:00,
2014-09-20 06:47:00,58.3,51.8,29.86,ENE,68,0.0,0.0,79,0.00,,,0.00,meteobridge,2014-09-20 13:47:00,
2014-09-20 06:48:00,58.3,51.8,29.86,ENE,69,0.0,1.0,79,0.00,,,0.00,meteobridge,2014-09-20 13:48:00,
2014-09-20 06:49:00,58.3,51.8,29.86,ENE,68,0.0,1.0,79,0.00,,,0.00,meteobridge,2014-09-20 13:49:00,
2014-09-20 06:53:00,58.3,51.8,29.86,ENE,69,0.0,0.0,79,0.00,,,0.00,meteobridge,2014-09-20 13:53:00,
2014-09-20 06:54:00,58.3,51.8,29.86,ENE,68,0.0,0.0,79,0.00,,,0.00,meteobridge,2014-09-20 13:54:00,
2014-09-20 06:55:00,58.3,51.8,29.86,ENE,69,0.0,0.0,79,0.00,,,0.00,meteobridge,2014-09-20 13:55:00,
2014-09-20 06:58:00,58.3,51.8,29.86,ENE,69,0.0,0.0,79,0.00,,,0.00,meteobridge,2014-09-20 13:58:00,
2014-09-20 06:59:00,58.3,51.8,29.86,ENE,68,0.0,0.0,79,0.00,,,0.00,meteobridge,2014-09-20 13:59:00,
2014-09-20 07:00:00,58.3,51.8,29.86,ENE,68,0.0,0.0,79,0.00,,,0.00,meteobridge,2014-09-20 14:00:00,
2014-09-20 07:04:00,58.3,51.8,29.86,ENE,68,0.0,1.0,79,0.00,,,0.00,meteobridge,2014-09-20 14:04:00,
2014-09-20 07:05:00,58.3,51.8,29.86,ENE,68,0.0,1.0,79,0.00,,,0.00,meteobridge,2014-09-20 14:05:00,
2014-09-20 07:09:00,58.3,51.8,29.87,ENE,68,0.0,1.0,79,0.00,,,0.00,meteobridge,2014-09-20 14:09:00,
2014-09-20 07:10:00,58.3,51.8,29.87,ENE,68,0.0,1.0,79,0.00,,,0.00,meteobridge,2014-09-20 14:10:00,
2014-09-20 07:11:00,58.3,51.8,29.87,ENE,68,0.0,0.0,79,0.00,,,0.00,meteobridge,2014-09-20 14:11:00,
2014-09-20 07:14:00,58.1,51.6,29.86,ENE,68,0.0,0.0,79,0.00,,,0.00,meteobridge,2014-09-20 14:14:00,
2014-09-20 07:15:00,58.1,51.6,29.86,ENE,68,0.0,0.0,79,0.00,,,0.00,meteobridge,2014-09-20 14:15:00,
2014-09-20 07:16:00,58.1,51.6,29.87,ENE,68,0.0,0.0,79,0.00,,,0.00,meteobridge,2014-09-20 14:16:00,
2014-09-20 07:20:00,58.1,51.6,29.87,ENE,68,0.0,0.0,79,0.00,,,0.00,meteobridge,2014-09-20 14:20:00,
2014-09-20 07:21:00,58.1,51.6,29.87,ENE,68,0.0,0.0,79,0.00,,,0.00,meteobridge,2014-09-20 14:21:00,
2014-09-20 07:23:00,58.1,51.6,29.87,ENE,68,0.0,1.0,79,0.00,,,0.00,meteobridge,2014-09-20 14:23:00,
2014-09-20 07:25:00,58.1,51.6,29.87,ENE,68,0.0,1.0,79,0.00,,,0.00,meteobridge,2014-09-20 14:25:00,
2014-09-20 07:26:00,58.1,51.6,29.87,ENE,68,0.0,1.0,79,0.00,,,0.00,meteobridge,2014-09-20 14:26:00,
2014-09-20 07:27:00,58.1,51.6,29.87,ENE,68,0.0,1.0,79,0.00,,,0.00,meteobridge,2014-09-20 14:27:00,
2014-09-20 07:28:00,58.1,51.6,29.87,ENE,68,0.0,0.0,79,0.00,,,0.00,meteobridge,2014-09-20 14:28:00,
2014-09-20 07:30:00,58.1,51.6,29.87,ENE,68,0.0,0.0,79,0.00,,,0.00,meteobridge,2014-09-20 14:30:00,
2014-09-20 07:32:00,58.1,51.6,29.87,ENE,68,0.0,0.0,79,0.00,,,0.00,meteobridge,2014-09-20 14:32:00,
2014-09-20 07:33:00,58.3,51.8,29.87,ENE,68,0.0,0.0,79,0.00,,,0.00,meteobridge,2014-09-20 14:33:00,
2014-09-20 07:36:00,58.3,51.8,29.87,ENE,68,0.0,1.0,79,0.00,,,0.00,meteobridge,2014-09-20 14:36:00,
2014-09-20 07:38:00,58.3,51.8,29.87,ENE,68,0.0,0.0,79,0.00,,,0.00,meteobridge,2014-09-20 14:38:00,
2014-09-20 07:39:00,58.3,51.8,29.87,ENE,68,0.0,0.0,79,0.00,,,0.00,meteobridge,2014-09-20 14:39:00,
2014-09-20 07:41:00,58.3,51.8,29.87,ENE,68,0.0,1.0,79,0.00,,,0.00,meteobridge,2014-09-20 14:41:00,
2014-09-20 07:43:00,58.5,52.0,29.87,ENE,68,0.0,1.0,79,0.00,,,0.00,meteobridge,2014-09-20 14:43:00,
2014-09-20 07:44:00,58.3,51.8,29.87,ENE,68,0.0,0.0,79,0.00,,,0.00,meteobridge,2014-09-20 14:44:00,
2014-09-20 07:46:00,58.3,51.8,29.88,ENE,68,0.0,0.0,79,0.00,,,0.00,meteobridge,2014-09-20 14:46:00,
2014-09-20 07:48:00,58.5,52.0,29.88,ENE,68,0.0,1.0,79,0.00,,,0.00,meteobridge,2014-09-20 14:48:00,
2014-09-20 07:49:00,58.5,52.0,29.87,ENE,68,0.0,1.0,79,0.00,,,0.00,meteobridge,2014-09-20 14:49:00,
2014-09-20 07:50:00,58.3,51.8,29.87,ENE,68,0.0,1.0,79,0.00,,,0.00,meteobridge,2014-09-20 14:50:00,
2014-09-20 07:52:00,58.5,52.3,29.88,ENE,68,0.0,0.0,80,0.00,,,0.00,meteobridge,2014-09-20 14:52:00,
2014-09-20 07:53:00,58.5,52.3,29.87,ENE,68,0.0,0.0,80,0.00,,,0.00,meteobridge,2014-09-20 14:53:00,
2014-09-20 07:55:00,58.5,52.3,29.88,ENE,68,0.0,0.0,80,0.00,,,0.00,meteobridge,2014-09-20 14:55:00,
2014-09-20 07:57:00,58.5,52.3,29.88,ENE,68,0.0,1.0,80,0.00,,,0.00,meteobridge,2014-09-20 14:57:00,
2014-09-20 07:58:00,58.5,52.3,29.88,ENE,68,0.0,1.0,80,0.00,,,0.00,meteobridge,2014-09-20 14:58:00,
2014-09-20 07:59:00,58.6,52.5,29.87,ENE,68,0.0,0.0,80,0.00,,,0.00,meteobridge,2014-09-20 14:59:00,
2014-09-20 08:02:00,58.6,52.5,29.88,ENE,68,0.0,1.0,80,0.00,,,0.00,meteobridge,2014-09-20 15:02:00,
2014-09-20 08:03:00,58.6,52.5,29.88,ENE,68,0.0,0.0,80,0.00,,,0.00,meteobridge,2014-09-20 15:03:00,
2014-09-20 08:04:00,58.8,52.7,29.88,ENE,68,0.0,1.0,80,0.00,,,0.00,meteobridge,2014-09-20 15:04:00,
2014-09-20 08:05:00,58.8,52.7,29.88,ENE,68,0.0,0.0,80,0.00,,,0.00,meteobridge,2014-09-20 15:05:00,
2014-09-20 08:07:00,58.6,52.5,29.88,ENE,68,0.0,0.0,80,0.00,,,0.00,meteobridge,2014-09-20 15:07:00,
2014-09-20 08:08:00,58.8,52.7,29.88,ENE,68,0.0,0.0,80,0.00,,,0.00,meteobridge,2014-09-20 15:08:00,
2014-09-20 08:10:00,58.8,52.7,29.88,ENE,68,0.0,0.0,80,0.00,,,0.00,meteobridge,2014-09-20 15:10:00,
2014-09-20 08:11:00,58.8,52.7,29.88,ENE,68,0.0,0.0,80,0.00,,,0.00,meteobridge,2014-09-20 15:11:00,
2014-09-20 08:12:00,58.8,52.7,29.88,ENE,68,0.0,0.0,80,0.00,,,0.00,meteobridge,2014-09-20 15:12:00,
2014-09-20 08:14:00,58.8,52.7,29.88,ENE,68,0.0,0.0,80,0.00,,,0.00,meteobridge,2014-09-20 15:14:00,
2014-09-20 08:16:00,58.8,53.1,29.88,ENE,68,0.0,0.0,81,0.00,,,0.00,meteobridge,2014-09-20 15:16:00,
2014-09-20 08:18:00,58.8,52.7,29.88,ENE,68,0.0,0.0,80,0.00,,,0.00,meteobridge,2014-09-20 15:18:00,
2014-09-20 08:19:00,58.8,52.7,29.88,ENE,68,0.0,1.0,80,0.00,,,0.00,meteobridge,2014-09-20 15:19:00,
2014-09-20 08:21:00,59.0,53.2,29.88,ENE,68,0.0,0.0,81,0.00,,,0.00,meteobridge,2014-09-20 15:21:00,
2014-09-20 08:25:00,59.2,53.4,29.88,ENE,68,0.0,0.0,81,0.00,,,0.00,meteobridge,2014-09-20 15:25:00,
2014-09-20 08:27:00,59.2,53.4,29.88,ENE,68,0.0,0.0,81,0.00,,,0.00,meteobridge,2014-09-20 15:27:00,
2014-09-20 08:30:00,59.4,53.6,29.88,ENE,68,0.0,0.0,81,0.00,,,0.00,meteobridge,2014-09-20 15:30:00,
2014-09-20 08:31:00,59.4,53.6,29.88,ENE,68,0.0,0.0,81,0.00,,,0.00,meteobridge,2014-09-20 15:31:00,
2014-09-20 08:32:00,59.5,53.8,29.88,ENE,68,0.0,0.0,81,0.00,,,0.00,meteobridge,2014-09-20 15:32:00,
2014-09-20 08:33:00,59.5,53.8,29.88,ENE,68,0.0,0.0,81,0.00,,,0.00,meteobridge,2014-09-20 15:33:00,
2014-09-20 08:36:00,59.7,54.0,29.88,ENE,68,0.0,0.0,81,0.00,,,0.00,meteobridge,2014-09-20 15:36:00,
2014-09-20 08:37:00,59.7,54.0,29.88,ENE,68,0.0,0.0,81,0.00,,,0.00,meteobridge,2014-09-20 15:37:00,
2014-09-20 08:38:00,59.7,54.0,29.88,ENE,68,0.0,0.0,81,0.00,,,0.00,meteobridge,2014-09-20 15:38:00,
2014-09-20 08:41:00,60.1,54.5,29.88,ENE,68,0.0,0.0,82,0.00,,,0.00,meteobridge,2014-09-20 15:41:00,
2014-09-20 08:42:00,60.1,54.5,29.88,ENE,68,0.0,0.0,82,0.00,,,0.00,meteobridge,2014-09-20 15:42:00,
2014-09-20 08:43:00,60.3,54.3,29.88,ENE,68,0.0,0.0,81,0.00,,,0.00,meteobridge,2014-09-20 15:43:00,
2014-09-20 08:47:00,60.6,54.7,29.88,ENE,68,0.0,0.0,81,0.00,,,0.00,meteobridge,2014-09-20 15:47:00,
2014-09-20 08:48:00,60.6,54.7,29.88,ENE,68,0.0,0.0,81,0.00,,,0.00,meteobridge,2014-09-20 15:48:00,
2014-09-20 08:49:00,60.8,54.7,29.88,ENE,68,0.0,0.0,80,0.00,,,0.00,meteobridge,2014-09-20 15:49:00,
2014-09-20 08:52:00,61.0,54.7,29.88,ENE,68,0.0,0.0,80,0.00,,,0.00,meteobridge,2014-09-20 15:52:00,
2014-09-20 08:54:00,61.2,54.9,29.88,ENE,68,0.0,0.0,80,0.00,,,0.00,meteobridge,2014-09-20 15:54:00,
2014-09-20 08:57:00,61.3,54.9,29.88,ENE,68,0.0,1.0,79,0.00,,,0.00,meteobridge,2014-09-20 15:57:00,
2014-09-20 08:59:00,61.3,54.5,29.88,ENE,68,0.0,1.0,78,0.00,,,0.00,meteobridge,2014-09-20 15:59:00,
2014-09-20 09:01:00,61.5,54.3,29.88,ENE,68,0.0,0.0,77,0.00,,,0.00,meteobridge,2014-09-20 16:01:00,
2014-09-20 09:03:00,61.9,54.3,29.88,ENE,68,0.0,0.0,76,0.00,,,0.00,meteobridge,2014-09-20 16:03:00,
2014-09-20 09:04:00,62.1,54.3,29.88,ENE,68,0.0,0.0,76,0.00,,,0.00,meteobridge,2014-09-20 16:04:00,
2014-09-20 09:06:00,62.2,54.1,29.88,ENE,68,0.0,0.0,75,0.00,,,0.00,meteobridge,2014-09-20 16:06:00,
2014-09-20 09:08:00,62.4,54.3,29.88,ENE,68,0.0,1.0,75,0.00,,,0.00,meteobridge,2014-09-20 16:08:00,
2014-09-20 09:09:00,62.4,54.7,29.88,ENE,68,0.0,1.0,76,0.00,,,0.00,meteobridge,2014-09-20 16:09:00,
2014-09-20 09:12:00,62.8,54.7,29.88,ENE,68,0.0,0.0,75,0.00,,,0.00,meteobridge,2014-09-20 16:12:00,
2014-09-20 09:13:00,62.8,55.0,29.88,ENE,68,0.0,0.0,76,0.00,,,0.00,meteobridge,2014-09-20 16:13:00,
2014-09-20 09:14:00,63.0,54.9,29.88,ENE,68,0.0,0.0,75,0.00,,,0.00,meteobridge,2014-09-20 16:14:00,
2014-09-20 09:15:00,63.0,55.2,29.88,ENE,68,0.0,0.0,76,0.00,,,0.00,meteobridge,2014-09-20 16:15:00,
2014-09-20 09:18:00,63.0,54.9,29.88,ENE,68,0.0,1.0,75,0.00,,,0.00,meteobridge,2014-09-20 16:18:00,
2014-09-20 09:19:00,63.1,55.0,29.88,ENE,68,0.0,0.0,75,0.00,,,0.00,meteobridge,2014-09-20 16:19:00,
2014-09-20 09:20:00,63.1,55.0,29.88,ENE,68,0.0,0.0,75,0.00,,,0.00,meteobridge,2014-09-20 16:20:00,
2014-09-20 09:24:00,63.3,55.2,29.89,ENE,68,0.0,0.0,75,0.00,,,0.00,meteobridge,2014-09-20 16:24:00,
2014-09-20 09:25:00,63.3,55.2,29.88,ENE,68,0.0,0.0,75,0.00,,,0.00,meteobridge,2014-09-20 16:25:00,
2014-09-20 09:30:00,63.7,55.9,29.89,ENE,68,0.0,0.0,76,0.00,,,0.00,meteobridge,2014-09-20 16:30:00,
2014-09-20 09:35:00,63.7,55.9,29.89,ENE,68,0.0,0.0,76,0.00,,,0.00,meteobridge,2014-09-20 16:35:00,
2014-09-20 09:36:00,63.9,56.1,29.89,ENE,68,0.0,0.0,76,0.00,,,0.00,meteobridge,2014-09-20 16:36:00,
2014-09-20 09:40:00,64.0,55.6,29.89,ENE,68,0.0,0.0,74,0.00,,,0.00,meteobridge,2014-09-20 16:40:00,
2014-09-20 09:41:00,64.0,55.9,29.89,ENE,68,0.0,0.0,75,0.00,,,0.00,meteobridge,2014-09-20 16:41:00,
2014-09-20 09:42:00,64.0,55.6,29.89,ENE,68,0.0,0.0,74,0.00,,,0.00,meteobridge,2014-09-20 16:42:00,
2014-09-20 09:45:00,64.4,55.6,29.89,ENE,68,0.0,0.0,73,0.00,,,0.00,meteobridge,2014-09-20 16:45:00,
2014-09-20 09:47:00,64.6,55.8,29.89,ENE,68,0.0,0.0,73,0.00,,,0.00,meteobridge,2014-09-20 16:47:00,
2014-09-20 09:48:00,64.6,55.8,29.89,ENE,68,0.0,0.0,73,0.00,,,0.00,meteobridge,2014-09-20 16:48:00,
2014-09-20 09:50:00,64.9,55.8,29.89,ENE,68,0.0,0.0,72,0.00,,,0.00,meteobridge,2014-09-20 16:50:00,
2014-09-20 09:52:00,64.9,55.8,29.89,ENE,68,0.0,0.0,72,0.00,,,0.00,meteobridge,2014-09-20 16:52:00,
2014-09-20 09:53:00,65.1,55.9,29.89,ENE,68,0.0,0.0,72,0.00,,,0.00,meteobridge,2014-09-20 16:53:00,
2014-09-20 09:56:00,65.5,55.8,29.89,ENE,68,0.0,0.0,71,0.00,,,0.00,meteobridge,2014-09-20 16:56:00,
2014-09-20 09:57:00,65.7,55.6,29.89,ENE,68,0.0,0.0,70,0.00,,,0.00,meteobridge,2014-09-20 16:57:00,
2014-09-20 09:58:00,65.7,55.6,29.89,ENE,68,0.0,0.0,70,0.00,,,0.00,meteobridge,2014-09-20 16:58:00,
2014-09-20 09:59:00,65.8,55.4,29.89,ENE,68,0.0,0.0,69,0.00,,,0.00,meteobridge,2014-09-20 16:59:00,
2014-09-20 10:01:00,66.0,55.2,29.89,ENE,68,0.0,0.0,68,0.00,,,0.00,meteobridge,2014-09-20 17:01:00,
2014-09-20 10:03:00,66.2,54.9,29.89,ENE,68,0.0,0.0,67,0.00,,,0.00,meteobridge,2014-09-20 17:03:00,
2014-09-20 10:04:00,66.4,55.6,29.89,ENE,68,0.0,0.0,68,0.00,,,0.00,meteobridge,2014-09-20 17:04:00,
2014-09-20 10:06:00,66.6,56.1,29.89,ENE,68,0.0,0.0,69,0.00,,,0.00,meteobridge,2014-09-20 17:06:00,
2014-09-20 10:08:00,66.6,55.6,29.89,ENE,68,0.0,0.0,68,0.00,,,0.00,meteobridge,2014-09-20 17:08:00,
2014-09-20 10:09:00,66.7,55.4,29.89,ENE,68,0.0,0.0,67,0.00,,,0.00,meteobridge,2014-09-20 17:09:00,
2014-09-20 10:10:00,66.7,55.8,29.89,ENE,68,0.0,0.0,68,0.00,,,0.00,meteobridge,2014-09-20 17:10:00,
2014-09-20 10:11:00,66.7,55.8,29.89,ENE,68,0.0,0.0,68,0.00,,,0.00,meteobridge,2014-09-20 17:11:00,
2014-09-20 10:14:00,66.9,54.9,29.89,ENE,68,0.0,0.0,65,0.00,,,0.00,meteobridge,2014-09-20 17:14:00,
2014-09-20 10:15:00,67.1,55.4,29.89,ENE,68,0.0,0.0,66,0.00,,,0.00,meteobridge,2014-09-20 17:15:00,
2014-09-20 10:17:00,67.3,55.6,29.89,ENE,68,0.0,0.0,66,0.00,,,0.00,meteobridge,2014-09-20 17:17:00,
2014-09-20 10:20:00,67.5,55.8,29.89,ENE,68,0.0,0.0,66,0.00,,,0.00,meteobridge,2014-09-20 17:20:00,
2014-09-20 10:21:00,67.5,55.8,29.89,ENE,68,0.0,0.0,66,0.00,,,0.00,meteobridge,2014-09-20 17:21:00,
2014-09-20 10:22:00,67.5,55.8,29.89,ENE,68,0.0,0.0,66,0.00,,,0.00,meteobridge,2014-09-20 17:22:00,
2014-09-20 10:25:00,67.6,55.4,29.89,ENE,68,0.0,0.0,65,0.00,,,0.00,meteobridge,2014-09-20 17:25:00,
2014-09-20 10:26:00,67.6,55.4,29.89,ENE,68,0.0,0.0,65,0.00,,,0.00,meteobridge,2014-09-20 17:26:00,
2014-09-20 10:27:00,67.8,55.6,29.89,ENE,68,0.0,0.0,65,0.00,,,0.00,meteobridge,2014-09-20 17:27:00,
2014-09-20 10:30:00,68.2,55.9,29.89,ENE,68,0.0,0.0,65,0.00,,,0.00,meteobridge,2014-09-20 17:30:00,
2014-09-20 10:31:00,68.2,55.9,29.89,ENE,68,0.0,0.0,65,0.00,,,0.00,meteobridge,2014-09-20 17:31:00,
2014-09-20 10:32:00,68.2,55.9,29.89,ENE,68,0.0,0.0,65,0.00,,,0.00,meteobridge,2014-09-20 17:32:00,
2014-09-20 10:33:00,68.2,55.9,29.89,ENE,68,0.0,0.0,65,0.00,,,0.00,meteobridge,2014-09-20 17:33:00,
2014-09-20 10:36:00,68.4,56.5,29.89,ENE,68,0.0,0.0,66,0.00,,,0.00,meteobridge,2014-09-20 17:36:00,
2014-09-20 10:37:00,68.5,56.3,29.89,ENE,68,0.0,0.0,65,0.00,,,0.00,meteobridge,2014-09-20 17:37:00,
2014-09-20 10:41:00,68.7,56.1,29.89,ENE,68,0.0,0.0,64,0.00,,,0.00,meteobridge,2014-09-20 17:41:00,
2014-09-20 10:43:00,68.9,56.7,29.89,ENE,68,0.0,0.0,65,0.00,,,0.00,meteobridge,2014-09-20 17:43:00,
2014-09-20 10:46:00,69.3,56.5,29.89,ENE,68,0.0,0.0,64,0.00,,,0.00,meteobridge,2014-09-20 17:46:00,
2014-09-20 10:47:00,69.3,56.5,29.89,ENE,68,0.0,0.0,64,0.00,,,0.00,meteobridge,2014-09-20 17:47:00,
2014-09-20 10:48:00,69.3,56.5,29.89,ENE,68,0.0,0.0,64,0.00,,,0.00,meteobridge,2014-09-20 17:48:00,
2014-09-20 10:51:00,69.6,56.8,29.89,ENE,68,0.0,0.0,64,0.00,,,0.00,meteobridge,2014-09-20 17:51:00,
2014-09-20 10:52:00,69.6,56.8,29.89,ENE,68,0.0,0.0,64,0.00,,,0.00,meteobridge,2014-09-20 17:52:00,
2014-09-20 10:53:00,69.6,56.8,29.89,ENE,68,0.0,0.0,64,0.00,,,0.00,meteobridge,2014-09-20 17:53:00,
2014-09-20 10:56:00,70.0,57.7,29.89,ENE,68,0.0,0.0,65,0.00,,,0.00,meteobridge,2014-09-20 17:56:00,
2014-09-20 10:57:00,70.2,57.9,29.89,ENE,68,0.0,0.0,65,0.00,,,0.00,meteobridge,2014-09-20 17:57:00,
2014-09-20 10:58:00,70.3,58.8,29.89,ENE,68,0.0,0.0,67,0.00,,,0.00,meteobridge,2014-09-20 17:58:00,
2014-09-20 11:02:00,70.5,57.4,29.89,ENE,68,0.0,0.0,63,0.00,,,0.00,meteobridge,2014-09-20 18:02:00,
2014-09-20 11:03:00,70.7,57.6,29.89,ENE,68,0.0,0.0,63,0.00,,,0.00,meteobridge,2014-09-20 18:03:00,
2014-09-20 11:04:00,70.9,58.1,29.89,ENE,68,0.0,0.0,64,0.00,,,0.00,meteobridge,2014-09-20 18:04:00,
2014-09-20 11:07:00,71.1,58.3,29.89,ENE,68,0.0,0.0,64,0.00,,,0.00,meteobridge,2014-09-20 18:07:00,
2014-09-20 11:08:00,71.1,55.9,29.89,ENE,68,0.0,0.0,59,0.00,,,0.00,meteobridge,2014-09-20 18:08:00,
2014-09-20 11:09:00,71.2,56.1,29.89,ENE,68,0.0,0.0,59,0.00,,,0.00,meteobridge,2014-09-20 18:09:00,
2014-09-20 11:12:00,71.6,57.4,29.89,ENE,68,0.0,0.0,61,0.00,,,0.00,meteobridge,2014-09-20 18:12:00,
2014-09-20 11:13:00,71.8,55.8,29.89,ENE,68,0.0,1.0,57,0.00,,,0.00,meteobridge,2014-09-20 18:13:00,
2014-09-20 11:15:00,71.8,56.1,29.89,ENE,68,0.0,1.0,58,0.00,,,0.00,meteobridge,2014-09-20 18:15:00,
2014-09-20 11:18:00,72.1,57.0,29.89,ENE,68,0.9,1.0,59,0.00,,,0.00,meteobridge,2014-09-20 18:18:00,
2014-09-20 11:20:00,72.3,56.3,29.89,ENE,68,0.0,1.0,57,0.00,,,0.00,meteobridge,2014-09-20 18:20:00,
2014-09-20 11:23:00,72.7,57.6,29.89,ENE,68,0.0,1.0,59,0.00,,,0.00,meteobridge,2014-09-20 18:23:00,
2014-09-20 11:25:00,72.7,58.8,29.88,ENE,68,0.0,0.0,62,0.00,,,0.00,meteobridge,2014-09-20 18:25:00,
2014-09-20 11:28:00,72.9,56.7,29.88,ENE,68,0.0,0.0,57,0.00,,,0.00,meteobridge,2014-09-20 18:28:00,
2014-09-20 11:29:00,72.9,55.8,29.88,ENE,68,0.0,0.0,55,0.00,,,0.00,meteobridge,2014-09-20 18:29:00,
2014-09-20 11:30:00,73.0,55.4,29.88,ENE,68,0.0,0.0,54,0.00,,,0.00,meteobridge,2014-09-20 18:30:00,
2014-09-20 11:33:00,73.2,55.6,29.89,ENE,68,0.0,1.0,54,0.00,,,0.00,meteobridge,2014-09-20 18:33:00,
2014-09-20 11:34:00,73.2,54.0,29.89,ENE,68,0.0,1.0,51,0.00,,,0.00,meteobridge,2014-09-20 18:34:00,
2014-09-20 11:36:00,73.2,55.6,29.88,ENE,68,0.0,1.0,54,0.00,,,0.00,meteobridge,2014-09-20 18:36:00,
2014-09-20 11:38:00,73.4,53.6,29.89,ENE,68,0.0,1.0,50,0.00,,,0.00,meteobridge,2014-09-20 18:38:00,
2014-09-20 11:39:00,73.6,53.2,29.89,East,92,0.0,1.0,49,0.00,,,0.00,meteobridge,2014-09-20 18:39:00,
2014-09-20 11:41:00,73.6,53.8,29.88,East,92,0.0,0.0,50,0.00,,,0.00,meteobridge,2014-09-20 18:41:00,
2014-09-20 11:44:00,73.9,54.7,29.88,North,9,0.0,1.0,51,0.00,,,0.00,meteobridge,2014-09-20 18:44:00,
2014-09-20 11:45:00,73.9,55.8,29.89,North,9,0.0,0.0,53,0.00,,,0.00,meteobridge,2014-09-20 18:45:00,
2014-09-20 11:46:00,74.1,56.8,29.88,North,9,0.0,1.0,55,0.00,,,0.00,meteobridge,2014-09-20 18:46:00,
2014-09-20 11:48:00,74.3,55.0,29.88,North,10,0.0,0.0,51,0.00,,,0.00,meteobridge,2014-09-20 18:48:00,
2014-09-20 11:49:00,74.5,55.8,29.88,North,10,0.0,0.0,52,0.00,,,0.00,meteobridge,2014-09-20 18:49:00,
2014-09-20 11:50:00,74.7,57.4,29.88,North,10,0.0,0.0,55,0.00,,,0.00,meteobridge,2014-09-20 18:50:00,
2014-09-20 11:52:00,74.8,57.0,29.88,SE,126,0.0,1.0,54,0.00,,,0.00,meteobridge,2014-09-20 18:52:00,
2014-09-20 11:53:00,74.8,55.6,29.88,East,80,0.0,2.0,51,0.00,,,0.00,meteobridge,2014-09-20 18:53:00,
2014-09-20 11:54:00,74.8,57.6,29.88,East,80,0.0,2.0,55,0.00,,,0.00,meteobridge,2014-09-20 18:54:00,
2014-09-20 11:55:00,74.8,56.1,29.88,East,80,0.0,0.0,52,0.00,,,0.00,meteobridge,2014-09-20 18:55:00,
2014-09-20 11:57:00,74.8,56.5,29.88,East,80,0.0,0.0,53,0.00,,,0.00,meteobridge,2014-09-20 18:57:00,
2014-09-20 11:59:00,74.8,55.6,29.88,East,80,0.0,0.0,51,0.00,,,0.00,meteobridge,2014-09-20 18:59:00,
2014-09-20 12:00:00,75.0,56.1,29.88,East,80,0.0,1.0,52,0.00,,,0.00,meteobridge,2014-09-20 19:00:00,
2014-09-20 12:03:00,75.0,55.6,29.88,ENE,78,0.0,1.0,51,0.00,,,0.00,meteobridge,2014-09-20 19:03:00,
2014-09-20 12:04:00,75.0,56.1,29.88,East,79,0.0,0.0,52,0.00,,,0.00,meteobridge,2014-09-20 19:04:00,
2014-09-20 12:05:00,75.2,57.4,29.88,East,79,0.0,0.0,54,0.00,,,0.00,meteobridge,2014-09-20 19:05:00,
2014-09-20 12:06:00,75.2,57.4,29.88,ENE,78,0.0,0.0,54,0.00,,,0.00,meteobridge,2014-09-20 19:06:00,
2014-09-20 12:09:00,75.2,55.8,29.88,ENE,77,0.0,2.0,51,0.00,,,0.00,meteobridge,2014-09-20 19:09:00,
2014-09-20 12:10:00,75.0,55.6,29.88,ENE,78,0.0,1.0,51,0.00,,,0.00,meteobridge,2014-09-20 19:10:00,
2014-09-20 12:12:00,75.0,55.6,29.88,ENE,77,0.0,1.0,51,0.00,,,0.00,meteobridge,2014-09-20 19:12:00,
2014-09-20 12:14:00,75.2,56.8,29.88,ENE,77,0.0,1.0,53,0.00,,,0.00,meteobridge,2014-09-20 19:14:00,
2014-09-20 12:15:00,75.2,56.8,29.88,ENE,77,0.0,1.0,53,0.00,,,0.00,meteobridge,2014-09-20 19:15:00,
2014-09-20 12:16:00,75.4,57.6,29.88,ENE,77,0.9,1.0,54,0.00,,,0.00,meteobridge,2014-09-20 19:16:00,
2014-09-20 12:18:00,75.6,56.1,29.88,North,354,2.0,2.0,51,0.00,,,0.00,meteobridge,2014-09-20 19:18:00,
2014-09-20 12:19:00,75.4,55.4,29.88,North,8,0.0,2.0,50,0.00,,,0.00,meteobridge,2014-09-20 19:19:00,
2014-09-20 12:20:00,75.6,55.6,29.88,North,8,0.0,2.0,50,0.00,,,0.00,meteobridge,2014-09-20 19:20:00,
2014-09-20 12:21:00,75.6,56.1,29.88,North,8,0.0,1.0,51,0.00,,,0.00,meteobridge,2014-09-20 19:21:00,
2014-09-20 12:24:00,75.7,55.8,29.88,North,8,0.0,0.0,50,0.00,,,0.00,meteobridge,2014-09-20 19:24:00,
2014-09-20 12:25:00,75.9,57.6,29.88,North,8,0.0,0.0,53,0.00,,,0.00,meteobridge,2014-09-20 19:25:00,
2014-09-20 12:29:00,76.3,56.3,29.88,ENE,58,0.0,1.0,50,0.00,,,0.00,meteobridge,2014-09-20 19:29:00,
2014-09-20 12:30:00,76.5,55.4,29.88,ENE,64,0.9,1.0,48,0.00,,,0.00,meteobridge,2014-09-20 19:30:00,
2014-09-20 12:31:00,76.5,55.4,29.88,North,3,0.0,1.0,48,0.00,,,0.00,meteobridge,2014-09-20 19:31:00,
2014-09-20 12:35:00,76.6,56.1,29.88,West,277,0.0,1.0,49,0.00,,,0.00,meteobridge,2014-09-20 19:35:00,
2014-09-20 12:36:00,76.6,57.2,29.88,NNW,342,0.9,1.0,51,0.00,,,0.00,meteobridge,2014-09-20 19:36:00,
2014-09-20 12:41:00,76.5,56.5,29.88,North,352,0.0,1.0,50,0.00,,,0.00,meteobridge,2014-09-20 19:41:00,
2014-09-20 12:42:00,76.5,56.5,29.88,North,352,0.0,1.0,50,0.00,,,0.00,meteobridge,2014-09-20 19:42:00,
2014-09-20 12:46:00,76.6,55.4,29.88,ENE,74,0.0,2.0,48,0.00,,,0.00,meteobridge,2014-09-20 19:46:00,
2014-09-20 12:48:00,76.5,56.5,29.88,ESE,120,0.0,1.0,50,0.00,,,0.00,meteobridge,2014-09-20 19:48:00,
2014-09-20 12:51:00,76.5,56.5,29.88,ESE,118,0.0,1.0,50,0.00,,,0.00,meteobridge,2014-09-20 19:51:00,
2014-09-20 12:52:00,76.5,55.9,29.88,ESE,118,0.0,1.0,49,0.00,,,0.00,meteobridge,2014-09-20 19:52:00,
2014-09-20 12:53:00,76.5,57.0,29.88,ESE,117,0.0,0.0,51,0.00,,,0.00,meteobridge,2014-09-20 19:53:00,
2014-09-20 12:56:00,76.5,57.0,29.88,NE,44,0.0,1.0,51,0.00,,,0.00,meteobridge,2014-09-20 19:56:00,
2014-09-20 12:57:00,76.5,57.0,29.88,NE,44,0.0,0.0,51,0.00,,,0.00,meteobridge,2014-09-20 19:57:00,
2014-09-20 12:58:00,76.5,57.0,29.88,NE,44,0.0,0.0,51,0.00,,,0.00,meteobridge,2014-09-20 19:58:00,
2014-09-20 13:01:00,76.5,57.0,29.88,NE,47,0.0,1.0,51,0.00,,,0.00,meteobridge,2014-09-20 20:01:00,
2014-09-20 13:02:00,76.3,57.9,29.88,NE,47,0.0,1.0,53,0.00,,,0.00,meteobridge,2014-09-20 20:02:00,
2014-09-20 13:03:00,76.3,56.8,29.88,NE,47,0.0,0.0,51,0.00,,,0.00,meteobridge,2014-09-20 20:03:00,
2014-09-20 13:04:00,76.5,57.0,29.88,NE,47,0.0,0.0,51,0.00,,,0.00,meteobridge,2014-09-20 20:04:00,
2014-09-20 13:07:00,76.5,57.0,29.88,NE,47,0.0,1.0,51,0.00,,,0.00,meteobridge,2014-09-20 20:07:00,
2014-09-20 13:08:00,76.5,56.5,29.88,NE,46,0.0,1.0,50,0.00,,,0.00,meteobridge,2014-09-20 20:08:00,
2014-09-20 13:10:00,76.3,56.8,29.88,NE,46,0.0,0.0,51,0.00,,,0.00,meteobridge,2014-09-20 20:10:00,
2014-09-20 13:12:00,76.3,57.9,29.88,NE,45,0.0,1.0,53,0.00,,,0.00,meteobridge,2014-09-20 20:12:00,
2014-09-20 13:14:00,76.3,58.5,29.88,NE,46,0.0,0.0,54,0.00,,,0.00,meteobridge,2014-09-20 20:14:00,
2014-09-20 13:15:00,76.3,57.4,29.88,NE,46,0.0,1.0,52,0.00,,,0.00,meteobridge,2014-09-20 20:15:00,
2014-09-20 13:17:00,76.3,58.5,29.88,NE,45,0.9,1.0,54,0.00,,,0.00,meteobridge,2014-09-20 20:17:00,
2014-09-20 13:19:00,76.3,57.9,29.88,NE,45,0.0,1.0,53,0.00,,,0.00,meteobridge,2014-09-20 20:19:00,
2014-09-20 13:20:00,76.3,59.4,29.88,NE,45,0.0,0.0,56,0.00,,,0.00,meteobridge,2014-09-20 20:20:00,
2014-09-20 13:23:00,76.5,58.1,29.88,North,354,0.9,1.0,53,0.00,,,0.00,meteobridge,2014-09-20 20:23:00,
2014-09-20 13:24:00,76.5,58.6,29.88,North,354,0.0,1.0,54,0.00,,,0.00,meteobridge,2014-09-20 20:24:00,
2014-09-20 13:25:00,76.5,59.2,29.88,North,354,0.0,1.0,55,0.00,,,0.00,meteobridge,2014-09-20 20:25:00,
2014-09-20 13:27:00,76.5,57.6,29.88,North,3,0.9,2.0,52,0.00,,,0.00,meteobridge,2014-09-20 20:27:00,
2014-09-20 13:28:00,76.5,57.0,29.88,North,0,0.0,2.0,51,0.00,,,0.00,meteobridge,2014-09-20 20:28:00,
2014-09-20 13:30:00,76.3,57.4,29.88,WSW,248,0.9,3.0,52,0.00,,,0.00,meteobridge,2014-09-20 20:30:00,
2014-09-20 13:32:00,76.1,56.7,29.88,NNE,13,0.9,2.0,51,0.00,,,0.00,meteobridge,2014-09-20 20:32:00,
2014-09-20 13:33:00,75.9,57.0,29.88,NNE,13,0.0,1.0,52,0.00,,,0.00,meteobridge,2014-09-20 20:33:00,
2014-09-20 13:35:00,75.9,57.0,29.88,NNE,14,0.0,0.0,52,0.00,,,0.00,meteobridge,2014-09-20 20:35:00,
2014-09-20 13:36:00,75.9,57.0,29.88,NNE,13,0.0,0.0,52,0.00,,,0.00,meteobridge,2014-09-20 20:36:00,
2014-09-20 13:37:00,75.9,57.0,29.87,NNE,13,0.0,1.0,52,0.00,,,0.00,meteobridge,2014-09-20 20:37:00,
2014-09-20 13:39:00,75.7,57.4,29.88,NNE,13,0.0,1.0,53,0.00,,,0.00,meteobridge,2014-09-20 20:39:00,
2014-09-20 13:41:00,75.7,57.9,29.88,NNE,13,0.0,0.0,54,0.00,,,0.00,meteobridge,2014-09-20 20:41:00,
2014-09-20 13:43:00,75.7,56.8,29.87,NNE,13,0.0,1.0,52,0.00,,,0.00,meteobridge,2014-09-20 20:43:00,
2014-09-20 13:44:00,75.7,57.4,29.87,NNE,13,0.0,1.0,53,0.00,,,0.00,meteobridge,2014-09-20 20:44:00,
2014-09-20 13:46:00,75.7,57.4,29.87,NNE,13,0.0,1.0,53,0.00,,,0.00,meteobridge,2014-09-20 20:46:00,
2014-09-20 13:48:00,75.7,57.9,29.87,NNE,13,0.0,0.0,54,0.00,,,0.00,meteobridge,2014-09-20 20:48:00,
2014-09-20 13:49:00,75.7,57.9,29.87,NNE,13,0.0,0.0,54,0.00,,,0.00,meteobridge,2014-09-20 20:49:00,
2014-09-20 13:51:00,75.7,56.8,29.87,NE,43,0.0,0.0,52,0.00,,,0.00,meteobridge,2014-09-20 20:51:00,
2014-09-20 13:52:00,75.9,57.0,29.87,NE,43,0.0,0.0,52,0.00,,,0.00,meteobridge,2014-09-20 20:52:00,
2014-09-20 13:55:00,75.9,57.6,29.87,NE,43,0.0,1.0,53,0.00,,,0.00,meteobridge,2014-09-20 20:55:00,
2014-09-20 13:56:00,75.9,58.1,29.87,NE,43,0.0,0.0,54,0.00,,,0.00,meteobridge,2014-09-20 20:56:00,
2014-09-20 13:57:00,75.9,58.6,29.87,NE,43,0.0,0.0,55,0.00,,,0.00,meteobridge,2014-09-20 20:57:00,
2014-09-20 14:00:00,75.9,57.0,29.87,NNE,25,0.9,1.0,52,0.00,,,0.00,meteobridge,2014-09-20 21:00:00,
2014-09-20 14:01:00,75.9,56.5,29.87,NNE,25,0.0,1.0,51,0.00,,,0.00,meteobridge,2014-09-20 21:01:00,
2014-09-20 14:02:00,75.9,57.0,29.87,NNE,25,0.9,1.0,52,0.00,,,0.00,meteobridge,2014-09-20 21:02:00,
2014-09-20 14:05:00,75.7,56.3,29.87,NNE,22,0.0,1.0,51,0.00,,,0.00,meteobridge,2014-09-20 21:05:00,
2014-09-20 14:06:00,75.7,57.4,29.87,NNE,22,0.0,0.0,53,0.00,,,0.00,meteobridge,2014-09-20 21:06:00,
2014-09-20 14:07:00,75.7,57.4,29.87,NNE,22,0.0,0.0,53,0.00,,,0.00,meteobridge,2014-09-20 21:07:00,
2014-09-20 14:10:00,75.7,56.3,29.87,North,6,0.9,2.0,51,0.00,,,0.00,meteobridge,2014-09-20 21:10:00,
2014-09-20 14:11:00,75.6,56.1,29.87,North,6,0.0,2.0,51,0.00,,,0.00,meteobridge,2014-09-20 21:11:00,
2014-09-20 14:12:00,75.6,56.7,29.87,North,6,0.0,0.0,52,0.00,,,0.00,meteobridge,2014-09-20 21:12:00,
2014-09-20 14:15:00,75.6,57.2,29.87,North,6,0.0,1.0,53,0.00,,,0.00,meteobridge,2014-09-20 21:15:00,
2014-09-20 14:16:00,75.6,57.2,29.87,NNE,32,0.0,1.0,53,0.00,,,0.00,meteobridge,2014-09-20 21:16:00,
2014-09-20 14:17:00,75.6,56.7,29.87,East,86,0.0,2.0,52,0.00,,,0.00,meteobridge,2014-09-20 21:17:00,
2014-09-20 14:21:00,75.6,56.7,29.87,East,80,0.0,1.0,52,0.00,,,0.00,meteobridge,2014-09-20 21:21:00,
2014-09-20 14:22:00,75.6,57.7,29.87,East,80,0.0,1.0,54,0.00,,,0.00,meteobridge,2014-09-20 21:22:00,
2014-09-20 14:25:00,75.7,57.4,29.87,East,81,0.0,0.0,53,0.00,,,0.00,meteobridge,2014-09-20 21:25:00,
2014-09-20 14:26:00,75.7,56.8,29.87,East,81,0.0,0.0,52,0.00,,,0.00,meteobridge,2014-09-20 21:26:00,
2014-09-20 14:27:00,75.7,56.8,29.87,East,81,0.0,1.0,52,0.00,,,0.00,meteobridge,2014-09-20 21:27:00,
2014-09-20 14:30:00,75.9,58.6,29.87,East,81,0.0,1.0,55,0.00,,,0.00,meteobridge,2014-09-20 21:30:00,
2014-09-20 14:31:00,75.9,57.6,29.87,East,81,0.0,0.0,53,0.00,,,0.00,meteobridge,2014-09-20 21:31:00,
2014-09-20 14:32:00,75.9,57.0,29.87,East,81,0.0,0.0,52,0.00,,,0.00,meteobridge,2014-09-20 21:32:00,
2014-09-20 14:33:00,75.9,57.0,29.86,East,81,0.0,0.0,52,0.00,,,0.00,meteobridge,2014-09-20 21:33:00,
2014-09-20 14:36:00,76.3,59.0,29.86,East,81,0.0,0.0,55,0.00,,,0.00,meteobridge,2014-09-20 21:36:00,
2014-09-20 14:37:00,76.3,58.5,29.86,East,81,0.0,0.0,54,0.00,,,0.00,meteobridge,2014-09-20 21:37:00,
2014-09-20 14:38:00,76.3,57.9,29.86,North,357,0.9,1.0,53,0.00,,,0.00,meteobridge,2014-09-20 21:38:00,
2014-09-20 14:41:00,76.3,56.8,29.86,North,349,0.0,1.0,51,0.00,,,0.00,meteobridge,2014-09-20 21:41:00,
2014-09-20 14:42:00,76.3,56.8,29.86,North,350,0.0,1.0,51,0.00,,,0.00,meteobridge,2014-09-20 21:42:00,
2014-09-20 14:43:00,76.3,56.3,29.86,North,349,0.0,1.0,50,0.00,,,0.00,meteobridge,2014-09-20 21:43:00,
2014-09-20 14:47:00,76.5,57.6,29.86,NNW,342,0.0,0.0,52,0.00,,,0.00,meteobridge,2014-09-20 21:47:00,
2014-09-20 14:48:00,76.6,57.7,29.86,NNW,342,0.0,0.0,52,0.00,,,0.00,meteobridge,2014-09-20 21:48:00,
2014-09-20 14:49:00,76.6,58.3,29.86,NNW,342,0.0,1.0,53,0.00,,,0.00,meteobridge,2014-09-20 21:49:00,
2014-09-20 14:52:00,76.6,57.2,29.86,ENE,75,0.0,1.0,51,0.00,,,0.00,meteobridge,2014-09-20 21:52:00,
2014-09-20 14:53:00,76.6,57.2,29.86,ENE,75,0.0,0.0,51,0.00,,,0.00,meteobridge,2014-09-20 21:53:00,
2014-09-20 14:55:00,76.8,57.9,29.86,ENE,75,0.0,0.0,52,0.00,,,0.00,meteobridge,2014-09-20 21:55:00,
2014-09-20 14:58:00,76.8,57.4,29.86,North,7,0.0,1.0,51,0.00,,,0.00,meteobridge,2014-09-20 21:58:00,
2014-09-20 15:00:00,76.8,57.9,29.86,ENE,73,0.0,2.0,52,0.00,,,0.00,meteobridge,2014-09-20 22:00:00,
2014-09-20 15:03:00,77.2,58.3,29.86,ENE,73,0.0,0.0,52,0.00,,,0.00,meteobridge,2014-09-20 22:03:00,
2014-09-20 15:04:00,77.2,58.3,29.86,North,349,0.0,1.0,52,0.00,,,0.00,meteobridge,2014-09-20 22:04:00,
2014-09-20 15:05:00,77.2,58.3,29.86,North,349,0.0,1.0,52,0.00,,,0.00,meteobridge,2014-09-20 22:05:00,
2014-09-20 15:08:00,77.4,57.7,29.86,North,351,0.0,0.0,51,0.00,,,0.00,meteobridge,2014-09-20 22:08:00,
2014-09-20 15:09:00,77.4,57.7,29.86,North,350,0.0,0.0,51,0.00,,,0.00,meteobridge,2014-09-20 22:09:00,
2014-09-20 15:10:00,77.4,58.3,29.86,North,350,0.0,0.0,52,0.00,,,0.00,meteobridge,2014-09-20 22:10:00,
2014-09-20 15:14:00,77.4,58.3,29.86,North,350,0.0,0.0,52,0.00,,,0.00,meteobridge,2014-09-20 22:14:00,
2014-09-20 15:15:00,77.4,57.2,29.86,North,351,0.0,1.0,50,0.00,,,0.00,meteobridge,2014-09-20 22:15:00,
2014-09-20 15:16:00,77.4,58.3,29.86,North,351,0.0,1.0,52,0.00,,,0.00,meteobridge,2014-09-20 22:16:00,
2014-09-20 15:19:00,77.4,58.8,29.86,NE,56,0.9,1.0,53,0.00,,,0.00,meteobridge,2014-09-20 22:19:00,
2014-09-20 15:20:00,77.4,57.2,29.86,NE,56,0.0,1.0,50,0.00,,,0.00,meteobridge,2014-09-20 22:20:00,
2014-09-20 15:21:00,77.2,57.0,29.86,NE,56,0.0,0.0,50,0.00,,,0.00,meteobridge,2014-09-20 22:21:00,
2014-09-20 15:24:00,77.2,57.7,29.86,NE,56,0.0,1.0,51,0.00,,,0.00,meteobridge,2014-09-20 22:24:00,
2014-09-20 15:26:00,77.2,57.0,29.86,NE,56,0.0,0.0,50,0.00,,,0.00,meteobridge,2014-09-20 22:26:00,
2014-09-20 15:27:00,77.2,57.0,29.86,NE,56,0.0,0.0,50,0.00,,,0.00,meteobridge,2014-09-20 22:27:00,
2014-09-20 15:29:00,77.2,57.0,29.86,NE,56,0.0,0.0,50,0.00,,,0.00,meteobridge,2014-09-20 22:29:00,
2014-09-20 15:31:00,77.2,57.7,29.86,NE,56,0.0,0.0,51,0.00,,,0.00,meteobridge,2014-09-20 22:31:00,
2014-09-20 15:32:00,77.2,57.0,29.86,NE,56,0.0,1.0,50,0.00,,,0.00,meteobridge,2014-09-20 22:32:00,
2014-09-20 15:34:00,77.2,57.0,29.86,NE,56,0.0,1.0,50,0.00,,,0.00,meteobridge,2014-09-20 22:34:00,
2014-09-20 15:36:00,77.2,57.0,29.86,NE,56,0.0,0.0,50,0.00,,,0.00,meteobridge,2014-09-20 22:36:00,
2014-09-20 15:37:00,77.2,56.5,29.86,NE,56,0.0,0.0,49,0.00,,,0.00,meteobridge,2014-09-20 22:37:00,
2014-09-20 15:39:00,77.2,56.5,29.86,NE,56,0.0,0.0,49,0.00,,,0.00,meteobridge,2014-09-20 22:39:00,
2014-09-20 15:40:00,77.2,56.5,29.85,NE,56,0.0,0.0,49,0.00,,,0.00,meteobridge,2014-09-20 22:40:00,